"Period start","avg(HW err(1)/warn(2) (#))","avg(Visibility (m))","avg(Weather code (#))","avg(Precip intensity (mm/h))","min(HW err(1)/warn(2) (#))","max(HW err(1)/warn(2) (#))","std(HW err(1)/warn(2) (#))","med(HW err(1)/warn(2) (#))","min(Visibility (m))","max(Visibility (m))","std(Visibility (m))","med(Visibility (m))","min(Weather code (#))","max(Weather code (#))","std(Weather code (#))","med(Weather code (#))","min(Precip intensity (mm/h))","max(Precip intensity (mm/h))","std(Precip intensity (mm/h))","med(Precip intensity (mm/h))"
2017-04-30 00:00:00,2,13559,71,0.13,2,2,0,2,6287,26220,6748,11868,71,71,0,71,0.00,0.45,0.15,0.05
2017-04-30 00:10:00,2,4467,71,0.63,2,2,0,2,2526,8422,1685,4004,71,71,0,71,0.10,1.45,0.45,0.52
2017-04-30 00:20:00,2,3231,71,0.77,2,2,0,2,1885,7273,1573,2641,71,71,0,71,0.20,1.35,0.39,0.73
2017-04-30 00:30:00,2,4559,71,0.47,2,2,0,2,1719,8939,2515,4578,71,71,0,71,0.05,1.35,0.42,0.25
2017-04-30 00:40:00,2,12509,70,0.21,2,2,0,2,3827,22759,6456,12417,67,71,2,71,0.00,0.65,0.20,0.23
2017-04-30 00:50:00,2,8130,71,0.49,2,2,0,2,2456,14770,3149,7754,71,71,0,71,0.15,1.10,0.31,0.43
2017-04-30 01:00:00,2,4659,71,0.72,2,2,0,2,3053,8026,1467,4320,71,71,0,71,0.35,1.35,0.32,0.68
2017-04-30 01:10:00,2,3943,71,1.21,2,2,0,2,2952,5674,841,3842,71,71,0,71,0.90,1.75,0.29,1.12
2017-04-30 01:20:00,2,3011,71,1.49,2,2,0,2,1885,5525,1090,2683,71,71,0,71,0.90,2.35,0.41,1.50
2017-04-30 01:30:00,2,3182,71,0.87,2,2,0,2,1556,4884,961,3254,71,71,0,71,0.35,1.70,0.38,0.88
2017-04-30 01:40:00,2,4545,71,0.64,2,2,0,2,2537,7066,1286,4276,71,71,0,71,0.20,1.40,0.36,0.50
2017-04-30 01:50:00,2,4975,71,0.91,2,2,0,2,3549,8825,1622,4192,71,71,0,71,0.20,2.00,0.53,0.85
2017-04-30 02:00:00,2,11506,71,0.21,2,2,0,2,8191,19516,3145,10375,71,71,0,71,0.00,0.55,0.19,0.15
2017-04-30 02:10:00,2,12519,71,0.15,2,2,0,2,9238,15310,1684,12662,71,71,0,71,0.00,0.45,0.14,0.10
2017-04-30 02:20:00,2,19888,71,0.10,2,2,0,2,9516,31064,7679,19834,71,71,0,71,0.00,0.40,0.12,0.05
2017-04-30 02:30:00,2,18370,71,0.23,2,2,0,2,9973,33740,7508,16778,71,71,0,71,0.00,0.80,0.26,0.12
2017-04-30 02:40:00,2,16662,71,0.20,2,2,0,2,11056,24328,3575,16960,71,71,0,71,0.05,0.50,0.13,0.17
2017-04-30 02:50:00,2,9281,71,0.39,2,2,0,2,6931,12848,1705,8790,71,71,0,71,0.10,1.30,0.35,0.30
2017-04-30 03:00:00,2,18186,71,0.30,2,2,0,2,8420,50000,11744,13538,71,71,0,71,0.05,0.95,0.26,0.20
2017-04-30 03:10:00,2,10375,71,0.41,2,2,0,2,5622,24488,5443,8644,71,71,0,71,0.15,0.80,0.19,0.38
2017-04-30 03:20:00,2,10890,71,0.27,2,2,0,2,5151,21591,4227,10078,71,71,0,71,0.10,0.45,0.11,0.25
2017-04-30 03:30:00,2,13974,71,0.41,2,2,0,2,5089,32571,8435,9507,71,71,0,71,0.05,1.20,0.39,0.25
2017-04-30 03:40:00,2,16130,71,0.20,2,2,0,2,9625,25808,5035,16480,71,71,0,71,0.00,0.50,0.21,0.10
2017-04-30 03:50:00,2,16202,71,0.14,2,2,0,2,8524,22005,3481,16554,71,71,0,71,0.00,0.40,0.12,0.10
2017-04-30 04:00:00,2,20722,71,0.03,2,2,0,2,14655,26491,4399,20670,71,71,0,71,0.00,0.30,0.09,0.00
2017-04-30 04:10:00,2,19370,73,0.10,2,2,0,2,12897,31572,5689,19260,71,77,3,71,0.00,0.20,0.08,0.10
2017-04-30 04:20:00,2,17082,71,0.06,2,2,0,2,12198,24629,4618,14908,71,71,0,71,0.00,0.30,0.09,0.03
2017-04-30 04:30:00,2,29124,32,0.02,2,2,0,2,14288,44036,9615,28101,0,71,35,0,0.00,0.10,0.03,0.00
2017-04-30 04:40:00,2,21717,21,0.00,2,2,0,2,16207,31900,4926,19314,0,71,33,0,0.00,0.00,0.00,0.00
2017-04-30 04:50:00,2,24581,0,0.00,2,2,0,2,19680,29014,3230,25948,0,0,0,0,0.00,0.00,0.00,0.00
2017-04-30 05:00:00,2,33545,0,0.00,2,2,0,2,21546,46314,7952,33526,0,0,0,0,0.00,0.00,0.00,0.00
2017-04-30 05:10:00,2,44929,0,0.00,2,2,0,2,30772,50000,6262,47982,0,0,0,0,0.00,0.00,0.00,0.00
2017-04-30 05:20:00,2,40267,0,0.00,2,2,0,2,31288,50000,6201,39755,0,0,0,0,0.00,0.00,0.00,0.00
2017-04-30 05:30:00,2,41640,0,0.00,2,2,0,2,33470,50000,5226,42324,0,0,0,0,0.00,0.00,0.00,0.00
2017-04-30 05:40:00,2,45108,0,0.00,2,2,0,2,36835,50000,4898,46185,0,0,0,0,0.00,0.00,0.00,0.00
2017-04-30 05:50:00,2,46144,0,0.00,2,2,0,2,31308,50000,5376,47818,0,0,0,0,0.00,0.00,0.00,0.00
2017-04-30 06:00:00,2,46136,0,0.00,2,2,0,2,30963,50000,5759,48676,0,0,0,0,0.00,0.00,0.00,0.00
2017-04-30 06:10:00,2,33281,8,0.04,2,2,0,2,11232,50000,14417,33694,0,40,16,0,0.00,0.30,0.09,0.00
2017-04-30 06:20:00,2,7562,71,0.68,2,2,0,2,5096,11036,1555,7300,71,71,0,71,0.25,1.30,0.32,0.57
2017-04-30 06:30:00,2,16035,71,0.17,2,2,0,2,9002,27377,4981,15390,71,71,0,71,0.00,0.70,0.20,0.10
2017-04-30 06:40:00,2,6090,71,1.29,2,2,0,2,2486,15456,3690,4968,71,71,0,71,0.40,2.85,0.78,1.08
2017-04-30 06:50:00,2,12025,71,0.49,2,2,0,2,5422,18107,3607,11895,71,71,0,71,0.20,1.35,0.34,0.38
2017-04-30 07:00:00,2,8303,71,0.44,2,2,0,2,6174,12879,1994,7880,71,71,0,71,0.15,0.80,0.16,0.45
2017-04-30 07:10:00,2,7812,71,0.81,2,2,0,2,4563,11830,2352,7565,71,71,0,71,0.30,2.25,0.58,0.53
2017-04-30 07:20:00,2,7311,71,0.80,2,2,0,2,5365,10404,1565,6726,71,71,0,71,0.10,1.30,0.43,1.00
2017-04-30 07:30:00,2,4880,71,1.26,2,2,0,2,3237,7275,1122,4698,71,71,0,71,0.25,1.85,0.59,1.62
2017-04-30 07:40:00,2,8380,71,0.59,2,2,0,2,5246,13672,2038,8106,71,71,0,71,0.15,1.10,0.29,0.52
2017-04-30 07:50:00,2,5768,71,0.73,2,2,0,2,4210,8105,999,5788,71,71,0,71,0.10,1.20,0.32,0.80
2017-04-30 08:00:00,2,5264,71,0.70,2,2,0,2,4513,6166,468,5376,71,71,0,71,0.30,1.05,0.24,0.65
2017-04-30 08:10:00,2,4850,71,0.77,2,2,0,2,4389,5659,349,4788,71,71,0,71,0.20,1.15,0.29,0.90
2017-04-30 08:20:00,2,5134,71,0.68,2,2,0,2,4686,5872,428,5008,71,71,0,71,0.30,0.95,0.21,0.70
2017-04-30 08:30:00,2,5011,71,0.66,2,2,0,2,3665,6364,775,4856,71,71,0,71,0.30,1.30,0.35,0.52
2017-04-30 08:40:00,2,6697,71,0.20,2,2,0,2,5274,9830,1318,6302,71,71,0,71,0.05,0.35,0.10,0.20
2017-04-30 08:50:00,2,7499,71,0.14,2,2,0,2,3926,10721,1893,7750,71,71,0,71,0.05,0.30,0.07,0.12
2017-04-30 09:00:00,2,9139,71,0.10,2,2,0,2,6886,11828,1600,8848,71,71,0,71,0.00,0.25,0.07,0.08
2017-04-30 09:10:00,2,14674,75,0.02,2,2,0,2,6520,21685,4427,15638,71,77,3,77,0.00,0.05,0.02,0.00
2017-04-30 09:20:00,2,14089,77,0.04,2,2,0,2,8910,19557,3037,14294,77,78,0,77,0.00,0.10,0.03,0.05
2017-04-30 09:30:00,2,11977,72,0.16,2,2,0,2,9069,14590,1641,11926,71,77,2,71,0.00,0.45,0.12,0.15
2017-04-30 09:40:00,2,17491,71,0.05,2,2,0,2,8473,27718,5639,18819,71,71,0,71,0.00,0.20,0.06,0.03
2017-04-30 09:50:00,2,15384,71,0.14,2,2,0,2,9010,21089,3238,14856,71,71,0,71,0.05,0.35,0.09,0.12
2017-04-30 10:00:00,2,18548,71,0.14,2,2,0,2,13271,25212,3101,18304,71,71,0,71,0.00,0.50,0.15,0.10
2017-04-30 10:10:00,2,16250,71,0.15,2,2,0,2,11843,20725,3126,16064,71,71,0,71,0.00,0.40,0.11,0.15
2017-04-30 10:20:00,2,10663,71,0.26,2,2,0,2,8053,13723,1766,10550,71,71,0,71,0.05,0.80,0.24,0.15
2017-04-30 10:30:00,2,7492,71,0.36,2,2,0,2,5643,9311,919,7544,71,71,0,71,0.15,0.50,0.13,0.42
2017-04-30 10:40:00,2,6883,71,0.48,2,2,0,2,4995,8183,981,7028,71,71,0,71,0.10,1.00,0.30,0.40
2017-04-30 10:50:00,2,7950,71,0.47,2,2,0,2,6618,9421,1003,8136,71,71,0,71,0.15,1.00,0.24,0.45
2017-04-30 11:00:00,2,7723,71,0.57,2,2,0,2,6358,10445,1302,7340,71,71,0,71,0.10,1.15,0.30,0.53
2017-04-30 11:10:00,2,11107,71,0.23,2,2,0,2,6445,14035,2141,11612,71,71,0,71,0.05,0.80,0.22,0.17
2017-04-30 11:20:00,2,8886,71,0.38,2,2,0,2,4975,14054,2494,8792,71,71,0,71,0.05,0.85,0.25,0.35
2017-04-30 11:30:00,2,15482,71,0.10,2,2,0,2,13673,18857,1619,14578,71,71,0,71,0.05,0.25,0.06,0.10
2017-04-30 11:40:00,2,18209,71,0.08,2,2,0,2,11910,24589,3423,17974,71,71,0,71,0.00,0.30,0.08,0.05
2017-04-30 11:50:00,2,22662,73,0.08,2,2,0,2,17525,27952,3244,22824,71,77,3,71,0.00,0.45,0.13,0.05
2017-04-30 12:00:00,2,19907,71,0.21,2,2,0,2,12623,30692,5564,20698,71,71,0,71,0.05,0.55,0.15,0.15
2017-04-30 12:10:00,2,28177,71,0.10,2,2,0,2,16709,36260,5022,27862,71,71,0,71,0.00,0.25,0.07,0.08
2017-04-30 12:20:00,2,11649,71,0.30,2,2,0,2,8617,18695,2823,10989,71,71,0,71,0.20,0.45,0.11,0.23
2017-04-30 12:30:00,2,7325,71,0.54,2,2,0,2,5707,8834,907,7282,71,71,0,71,0.30,1.00,0.20,0.50
2017-04-30 12:40:00,2,10237,71,0.55,2,2,0,2,7915,13127,1938,9611,71,71,0,71,0.15,1.00,0.32,0.47
2017-04-30 12:50:00,2,11415,71,0.53,2,2,0,2,9653,14273,1446,10964,71,71,0,71,0.20,0.75,0.18,0.55
2017-04-30 13:00:00,2,7490,71,0.69,2,2,0,2,5641,9137,1108,7234,71,71,0,71,0.40,1.15,0.26,0.65
2017-04-30 13:10:00,2,8540,71,0.61,2,2,0,2,6581,10228,1321,8738,71,71,0,71,0.15,1.25,0.35,0.55
2017-04-30 13:20:00,2,9589,71,0.39,2,2,0,2,8231,11605,1095,9304,71,71,0,71,0.10,0.70,0.18,0.38
2017-04-30 13:30:00,2,8393,71,0.62,2,2,0,2,6101,11677,1468,8276,71,71,0,71,0.35,1.65,0.36,0.53
2017-04-30 13:40:00,2,8630,71,0.66,2,2,0,2,6096,11816,1735,8637,71,71,0,71,0.10,1.70,0.43,0.50
2017-04-30 13:50:00,2,8558,71,0.59,2,2,0,2,6050,11855,1704,8408,71,71,0,71,0.10,1.00,0.30,0.50
2017-04-30 14:00:00,2,11361,71,0.36,2,2,0,2,4787,15941,2731,11344,71,71,0,71,0.05,1.45,0.38,0.30
2017-04-30 14:10:00,2,9704,71,0.43,2,2,0,2,7403,12755,1573,9752,71,71,0,71,0.15,0.90,0.22,0.40
2017-04-30 14:20:00,2,5528,71,1.02,2,2,0,2,3045,8767,1513,5498,71,71,0,71,0.30,2.50,0.61,0.92
2017-04-30 14:30:00,2,4951,71,1.44,2,2,0,2,3344,6822,941,4890,71,71,0,71,0.55,2.30,0.55,1.60
2017-04-30 14:40:00,2,5260,71,1.43,2,2,0,2,3971,6779,975,5299,71,71,0,71,0.80,2.10,0.41,1.40
2017-04-30 14:50:00,2,6832,71,1.03,2,2,0,2,4919,8763,1341,6630,71,71,0,71,0.40,1.55,0.46,1.12
2017-04-30 15:00:00,2,8630,71,0.66,2,2,0,2,5928,11765,1550,8855,71,71,0,71,0.40,1.25,0.28,0.50
2017-04-30 15:10:00,2,8482,71,0.70,2,2,0,2,5820,12607,2238,7956,71,71,0,71,0.20,1.55,0.39,0.60
2017-04-30 15:20:00,2,8096,71,0.81,2,2,0,2,5324,10490,1630,8006,71,71,0,71,0.40,1.70,0.35,0.75
2017-04-30 15:30:00,2,5927,71,1.29,2,2,0,2,3635,8559,1241,6077,71,71,0,71,0.85,1.95,0.36,1.18
2017-04-30 15:40:00,2,4771,71,1.65,2,2,0,2,2772,7779,1609,4120,71,71,0,71,0.55,3.50,0.82,1.70
2017-04-30 15:50:00,2,6791,71,0.99,2,2,0,2,4365,8867,1393,6594,71,71,0,71,0.40,1.95,0.41,0.92
2017-04-30 16:00:00,2,6940,71,0.72,2,2,0,2,4355,9445,1492,6584,71,71,0,71,0.30,1.35,0.26,0.68
2017-04-30 16:10:00,2,4481,71,1.70,2,2,0,2,2909,7194,1639,3847,71,71,0,71,0.40,3.30,1.01,1.75
2017-04-30 16:20:00,2,2855,71,3.06,2,2,0,2,2283,3940,477,2728,71,71,0,71,1.40,4.45,1.07,3.05
2017-04-30 16:30:00,2,5700,71,1.62,2,2,0,2,2696,9899,2323,5118,71,71,0,71,0.60,3.80,0.96,1.40
2017-04-30 16:40:00,2,12094,71,0.28,2,2,0,2,10343,13580,1069,12166,71,71,0,71,0.10,0.60,0.15,0.30
2017-04-30 16:50:00,2,12707,71,0.38,2,2,0,2,9533,16094,2319,13267,71,71,0,71,0.10,0.80,0.25,0.28
2017-04-30 17:00:00,2,11208,71,0.67,2,2,0,2,6999,16983,3011,10882,71,71,0,71,0.25,1.80,0.43,0.52
2017-04-30 17:10:00,2,13156,71,0.39,2,2,0,2,7932,23989,4421,12873,71,71,0,71,0.15,1.00,0.25,0.30
2017-04-30 17:20:00,2,10489,71,0.90,2,2,0,2,4986,22666,6016,8025,71,71,0,71,0.05,2.05,0.69,0.88
2017-04-30 17:30:00,2,8014,71,0.97,2,2,0,2,6246,9659,1168,8160,71,71,0,71,0.50,1.50,0.29,1.02
2017-04-30 17:40:00,2,5952,71,1.27,2,2,0,2,4402,8024,1005,6110,71,71,0,71,0.55,2.30,0.50,1.25
2017-04-30 17:50:00,2,6608,71,1.05,2,2,0,2,5504,8113,822,6463,71,71,0,71,0.40,1.90,0.40,1.02
2017-04-30 18:00:00,2,6585,71,1.02,2,2,0,2,3804,8728,1667,6562,71,71,0,71,0.25,1.85,0.43,1.02
2017-04-30 18:10:00,2,7147,71,1.02,2,2,0,2,5648,8601,710,7333,71,71,0,71,0.35,1.90,0.50,0.98
2017-04-30 18:20:00,2,8930,71,0.80,2,2,0,2,7099,10431,1248,9349,71,71,0,71,0.35,1.45,0.31,0.68
2017-04-30 18:30:00,2,9749,71,0.72,2,2,0,2,7376,12533,1869,10087,71,71,0,71,0.30,1.15,0.25,0.75
2017-04-30 18:40:00,2,9085,71,0.74,2,2,0,2,6009,12470,2024,9022,71,71,0,71,0.20,1.55,0.37,0.70
2017-04-30 18:50:00,2,7136,71,0.94,2,2,0,2,5382,8900,1239,7157,71,71,0,71,0.35,2.00,0.49,1.00
2017-04-30 19:00:00,2,7504,71,0.78,2,2,0,2,5891,9785,1135,7373,71,71,0,71,0.55,1.25,0.22,0.70
2017-04-30 19:10:00,2,4841,71,1.60,2,2,0,2,3712,5963,671,4546,71,71,0,71,0.95,2.80,0.52,1.55
2017-04-30 19:20:00,2,4217,71,2.01,2,2,0,2,3115,5398,728,4448,71,71,0,71,1.65,2.60,0.26,2.00
2017-04-30 19:30:00,2,3754,71,2.30,2,2,0,2,3060,4598,451,3627,71,71,0,71,1.60,3.00,0.39,2.35
2017-04-30 19:40:00,2,4601,71,1.74,2,2,0,2,3690,5960,691,4434,71,71,0,71,0.75,2.60,0.57,1.73
2017-04-30 19:50:00,2,4280,71,1.94,2,2,0,2,3464,4883,478,4367,71,71,0,71,1.20,2.50,0.44,1.93
2017-04-30 20:00:00,2,4330,71,2.16,2,2,0,2,3145,5752,705,4388,71,71,0,71,1.70,2.45,0.27,2.28
2017-04-30 20:10:00,2,4018,71,2.09,2,2,0,2,3330,5128,549,4036,71,71,0,71,1.45,2.90,0.42,2.02
2017-04-30 20:20:00,2,3515,71,2.06,2,2,0,2,2883,4573,512,3290,71,71,0,71,1.20,3.15,0.50,2.10
2017-04-30 20:30:00,2,3626,71,1.90,2,2,0,2,2940,4902,612,3517,71,71,0,71,1.25,2.25,0.26,1.90
2017-04-30 20:40:00,2,3847,71,1.90,2,2,0,2,2701,4940,720,3693,71,71,0,71,1.25,3.30,0.59,1.73
2017-04-30 20:50:00,2,3515,71,2.38,2,2,0,2,2816,4331,466,3440,71,71,0,71,1.25,3.25,0.57,2.48
2017-04-30 21:00:00,2,2763,71,2.69,2,2,0,2,1988,4325,756,2436,71,71,0,71,1.35,3.90,0.70,2.50
2017-04-30 21:10:00,2,3961,71,2.24,2,2,0,2,1926,5480,1002,4214,71,71,0,71,1.15,4.35,0.92,2.07
2017-04-30 21:20:00,2,5542,71,1.49,2,2,0,2,3848,8637,1303,5552,71,71,0,71,0.65,2.05,0.38,1.45
2017-04-30 21:30:00,2,6454,71,1.18,2,2,0,2,4318,11693,1986,5952,71,71,0,71,0.40,2.15,0.60,1.02
2017-04-30 21:40:00,2,10209,71,0.60,2,2,0,2,5691,13260,1960,10380,71,71,0,71,0.30,1.30,0.28,0.55
2017-04-30 21:50:00,2,9646,71,0.67,2,2,0,2,6688,12389,1765,10128,71,71,0,71,0.25,1.10,0.30,0.75
2017-04-30 22:00:00,2,9766,71,0.65,2,2,0,2,7404,12421,1669,9802,71,71,0,71,0.35,0.85,0.15,0.65
2017-04-30 22:10:00,2,8018,71,0.95,2,2,0,2,5255,13774,2467,6990,71,71,0,71,0.60,1.35,0.25,0.88
2017-04-30 22:20:00,2,9732,71,0.76,2,2,0,2,7542,11859,1343,9776,71,71,0,71,0.50,1.10,0.20,0.68
2017-04-30 22:30:00,2,15434,71,0.40,2,2,0,2,10825,19844,3370,16094,71,71,0,71,0.10,0.70,0.21,0.35
2017-04-30 22:40:00,2,13255,71,0.30,2,2,0,2,10107,20294,2807,13187,71,71,0,71,0.10,0.55,0.16,0.25
2017-04-30 22:50:00,2,15732,71,0.20,2,2,0,2,12634,20069,2417,15936,71,71,0,71,0.05,0.60,0.17,0.12
2017-04-30 23:00:00,2,14763,71,0.34,2,2,0,2,10969,21013,2845,14368,71,71,0,71,0.05,1.10,0.37,0.20
2017-04-30 23:10:00,2,17547,71,0.10,2,2,0,2,12272,22532,3464,17698,71,71,0,71,0.05,0.20,0.04,0.10
2017-04-30 23:20:00,2,18719,71,0.16,2,2,0,2,11200,26838,4128,17981,71,71,0,71,0.05,0.65,0.18,0.08
2017-04-30 23:30:00,2,22609,71,0.11,2,2,0,2,12620,27732,4479,22699,71,71,0,71,0.05,0.40,0.11,0.05
2017-04-30 23:40:00,2,27497,71,0.05,2,2,0,2,15705,49882,9891,24353,71,71,0,71,0.00,0.10,0.04,0.05
2017-04-30 23:50:00,2,25760,71,0.09,2,2,0,2,16165,37623,6203,23371,71,71,0,71,0.00,0.25,0.09,0.05
